Timestamp,Temp,Chill,HIndex,Humid,Dewpt,Wind,HiWind,WindDir,Rain,RainRate,Barom,Solar,ET,UV,InsideTemp,InsideHumid
2015-10-15 00:00:00,48,48,48,85,43.708760462694,3,7,337.5,0,0,29.99,0,0.001,0,72.6,39
2015-10-15 00:05:00,47.9,47.9,47.9,85,43.6106845025178,3,10,337.5,0,0,29.989,0,0,0,72.6,39
2015-10-15 00:10:00,47.7,46.2133773473318,47.7,85,43.4145313004034,4,9,337.5,0,0,29.991,0,0,0,72.6,39
2015-10-15 00:15:00,47.6,45.3990518618233,47.6,85,43.3164540584596,5,11,337.5,0,0,29.993,0,0,0,72.6,39
2015-10-15 00:20:00,47.4,45.1641400985732,47.4,85,43.1202982927849,5,10,315,0,0,29.993,0,0,0,72.6,39
2015-10-15 00:25:00,47.2,44.3328971831536,47.2,86,43.2291046913205,6,11,337.5,0,0,29.989,0,0,0,72.6,39
2015-10-15 00:30:00,47,44.6943165720731,47,86,43.0326728045462,5,10,315,0,0,29.991,0,0,0,72.6,39
2015-10-15 00:35:00,46.9,43.4534108840317,46.9,86,42.9344562651276,7,12,337.5,0,0,29.994,0,0,0,72.6,39
2015-10-15 00:40:00,46.8,43.3328959760075,46.8,86,42.8362393283513,7,12,315,0,0,29.992,0,0,0,72.6,39
2015-10-15 00:45:00,46.7,43.7374321993942,46.7,86,42.7380219942152,6,11,315,0,0,29.993,0,0,0,72.6,39
2015-10-15 00:50:00,46.5,43.4992462058905,46.5,86,42.5415861338532,6,12,337.5,0,0,29.996,0,0,0,72.6,39
2015-10-15 00:55:00,46.5,42.9713512519348,46.5,86,42.5415861338532,7,13,315,0,0,29.992,0,0,0,72.6,39
2015-10-15 01:00:00,46.3,43.2610602123867,46.3,86,42.3451486840223,6,10,292.5,0,0,29.992,0,0.001,0,72.6,39
2015-10-15 01:05:00,46.3,43.8721254006979,46.3,87,42.6457892030204,5,10,337.5,0,0,29.991,0,0,0,72.6,39
2015-10-15 01:10:00,46.2,43.1419672156349,46.2,87,42.5474350797834,6,9,315,0,0,29.994,0,0,0,72.6,39
2015-10-15 01:15:00,46.1,43.6372136374479,46.1,87,42.4490805888759,5,10,337.5,0,0,29.993,0,0,0,72.6,39
2015-10-15 01:20:00,46.1,43.022874218883,46.1,87,42.4490805888759,6,10,315,0,0,29.994,0,0,0,72.6,39
2015-10-15 01:25:00,46.1,43.022874218883,46.1,87,42.4490805888759,6,10,337.5,0,0,29.994,0,0,0,72.4,39
2015-10-15 01:30:00,46.1,43.6372136374479,46.1,87,42.4490805888759,5,9,315,0,0,29.992,0,0,0,72.4,39
2015-10-15 01:35:00,46.1,43.6372136374479,46.1,87,42.4490805888759,5,10,315,0,0,29.991,0,0,0,72.4,39
2015-10-15 01:40:00,46.2,43.7546695190729,46.2,87,42.5474350797834,5,10,0,0,0,29.991,0,0,0,72.4,39
2015-10-15 01:45:00,46.2,43.7546695190729,46.2,87,42.5474350797834,5,10,0,0,0,29.992,0,0,0,72.4,39
2015-10-15 01:50:00,46.2,43.1419672156349,46.2,87,42.5474350797834,6,10,337.5,0,0,29.993,0,0,0,72.4,39
2015-10-15 01:55:00,46.3,43.8721254006979,46.3,87,42.6457892030204,5,10,315,0,0,29.992,0,0,0,72.4,39
2015-10-15 02:00:00,46.3,43.2610602123867,46.3,87,42.6457892030204,6,11,315,0,0,29.994,0,0.001,0,72.4,39
2015-10-15 02:05:00,46.4,43.9895812823229,46.4,87,42.7441429585889,5,10,315,0,0,29.993,0,0,0,72.4,39
2015-10-15 02:10:00,46.5,43.4992462058905,46.5,87,42.8424963464909,6,9,337.5,0,0,29.991,0,0,0,72.4,39
2015-10-15 02:15:00,46.5,44.8271837757453,46.5,87,42.8424963464909,4,10,315,0,0,29.988,0,0,0,72.4,39
2015-10-15 02:20:00,46.5,44.107037163948,46.5,88,43.1403738088368,5,9,315,0,0,29.988,0,0,0,72.4,39
2015-10-15 02:25:00,46.7,43.7374321993942,46.7,88,43.3373467572356,6,12,337.5,0,0,29.988,0,0,0,72.4,39
2015-10-15 02:30:00,46.7,43.7374321993942,46.7,88,43.3373467572356,6,10,0,0,0,29.988,0,0,0,72.4,39
2015-10-15 02:35:00,46.8,45.1737321686419,46.8,88,43.43583272417,4,9,0,0,0,29.991,0,0,0,72.4,39
2015-10-15 02:40:00,46.9,46.9,46.9,87,43.2359062214755,3,7,337.5,0,0,29.989,0,0,0,72.4,39
2015-10-15 02:45:00,46.9,46.9,46.9,87,43.2359062214755,2,8,0,0,0,29.987,0,0,0,72.4,39
2015-10-15 02:50:00,47,47,47,87,43.3342577710762,3,8,0,0,0,29.986,0,0,0,72.6,39
2015-10-15 02:55:00,47,45.404764430573,47,87,43.3342577710762,4,12,315,0,0,29.987,0,0,0,72.6,39
2015-10-15 03:00:00,47,45.404764430573,47,87,43.3342577710762,4,9,292.5,0,0,29.986,0,0.001,0,72.6,39
2015-10-15 03:05:00,47.1,45.5202805615386,47.1,87,43.4326089530227,4,8,292.5,0,0,29.983,0,0,0,72.6,39
2015-10-15 03:10:00,47.1,47.1,47.1,87,43.4326089530227,3,7,315,0,0,29.985,0,0,0,72.6,39
2015-10-15 03:15:00,47.1,44.8117724536982,47.1,88,43.7312885959343,5,9,315,0,0,29.984,0,0,0,72.6,39
2015-10-15 03:20:00,47.1,45.5202805615386,47.1,88,43.7312885959343,4,10,337.5,0,0,29.982,0,0,0,72.6,39
2015-10-15 03:25:00,47.1,44.8117724536982,47.1,88,43.7312885959343,5,10,315,0.00393700787,0,29.981,0,0,0,72.6,39
2015-10-15 03:30:00,47.1,44.8117724536982,47.1,88,43.7312885959343,5,9,0,0,0,29.981,0,0,0,72.6,39
2015-10-15 03:35:00,47,44.0947111896499,47,88,43.6328036435176,6,10,337.5,0,0,29.978,0,0,0,72.6,39
2015-10-15 03:40:00,47.1,45.5202805615386,47.1,88,43.7312885959343,4,9,315,0,0,29.979,0,0,0,72.6,39
2015-10-15 03:45:00,47.1,44.8117724536982,47.1,88,43.7312885959343,5,11,337.5,0,0,29.977,0,0,0,72.6,39
2015-10-15 03:50:00,47.1,45.5202805615386,47.1,88,43.7312885959343,4,9,337.5,0,0,29.977,0,0,0,72.6,39
2015-10-15 03:55:00,47.2,47.2,47.2,88,43.8297732101818,3,8,315,0,0,29.978,0,0,0,72.6,39
2015-10-15 04:00:00,47.2,44.9292283353232,47.2,88,43.8297732101818,5,10,337.5,0,0,29.978,0,0.001,0,72.6,39
2015-10-15 04:05:00,47.2,44.9292283353232,47.2,88,43.8297732101818,5,10,0,0,0,29.976,0,0,0,72.6,39
2015-10-15 04:10:00,47.2,44.9292283353232,47.2,88,43.8297732101818,5,11,315,0,0,29.975,0,0,0,72.6,39
2015-10-15 04:15:00,47.1,45.5202805615386,47.1,89,44.0269928166942,4,8,315,0,0,29.973,0,0,0,72.6,39
2015-10-15 04:20:00,47.2,44.9292283353232,47.2,89,44.1256099876075,5,8,337.5,0,0,29.971,0,0,0,72.6,39
2015-10-15 04:25:00,47.2,47.2,47.2,89,44.1256099876075,3,8,292.5,0,0,29.97,0,0,0,72.6,39
2015-10-15 04:30:00,47.1,45.5202805615386,47.1,89,44.0269928166942,4,9,0,0,0,29.971,0,0,0,72.6,39
2015-10-15 04:35:00,47.1,44.8117724536982,47.1,89,44.0269928166942,5,8,0,0.00393700787,0,29.967,0,0,0,72.6,39
2015-10-15 04:40:00,47.2,45.6357966925041,47.2,89,44.1256099876075,4,8,315,0,0,29.968,0,0,0,72.6,39
2015-10-15 04:45:00,47.1,45.5202805615386,47.1,89,44.0269928166942,4,8,337.5,0,0,29.968,0,0,0,72.6,39
2015-10-15 04:50:00,47.1,45.5202805615386,47.1,89,44.0269928166942,4,9,292.5,0,0.01574803148,29.967,0,0,0,72.6,39
2015-10-15 04:55:00,47.1,47.1,47.1,89,44.0269928166942,3,7,337.5,0.00393700787,0.01574803148,29.968,0,0,0,72.6,39
2015-10-15 05:00:00,47.1,45.5202805615386,47.1,89,44.0269928166942,4,10,0,0,0.01574803148,29.968,0,0,0,72.6,39
2015-10-15 05:05:00,47.1,47.1,47.1,89,44.0269928166942,3,10,292.5,0,0.01574803148,29.967,0,0,0,72.8,39
2015-10-15 05:10:00,47,45.404764430573,47,89,43.9283753368811,4,8,315,0,0,29.967,0,0,0,72.8,39
2015-10-15 05:15:00,47,47,47,89,43.9283753368811,3,7,315,0,0,29.966,0,0,0,72.6,39
2015-10-15 05:20:00,47,47,47,89,43.9283753368811,3,7,315,0,0,29.966,0,0,0,72.6,39
2015-10-15 05:25:00,47,47,47,89,43.9283753368811,3,6,315,0,0,29.965,0,0,0,72.6,39
2015-10-15 05:30:00,47,45.404764430573,47,89,43.9283753368811,4,8,315,0,0,29.964,0,0,0,72.6,39
2015-10-15 05:35:00,47,44.6943165720731,47,90,44.2210356670256,5,10,315,0,0,29.963,0,0,0,72.4,39
2015-10-15 05:40:00,46.9,43.975618192898,46.9,90,44.1222865975451,6,11,0,0,0,29.962,0,0,0,72.4,39
2015-10-15 05:45:00,46.9,44.5768606904481,46.9,90,44.1222865975451,5,10,315,0,0,29.962,0,0,0,72.4,39
2015-10-15 05:50:00,46.9,43.4534108840317,46.9,90,44.1222865975451,7,11,337.5,0,0,29.962,0,0,0,72.3,39
2015-10-15 05:55:00,47,44.6943165720731,47,90,44.2210356670256,5,10,292.5,0,0,29.967,0,0,0,72.3,39
2015-10-15 06:00:00,47,44.6943165720731,47,90,44.2210356670256,5,10,292.5,0,0,29.965,0,0,0,72.3,40
2015-10-15 06:05:00,47,47,47,90,44.2210356670256,3,8,0,0,0,29.963,0,0,0,72.1,40
2015-10-15 06:10:00,47.1,47.1,47.1,90,44.3197844566644,3,9,292.5,0,0,29.969,0,0,0,72.1,40
2015-10-15 06:15:00,47.1,47.1,47.1,90,44.3197844566644,3,10,292.5,0,0,29.969,0,0,0,71.9,40
2015-10-15 06:20:00,47.1,45.5202805615386,47.1,90,44.3197844566644,4,10,337.5,0,0,29.968,0,0,0,71.9,40
2015-10-15 06:25:00,47.2,44.9292283353232,47.2,90,44.4185329664627,5,9,337.5,0,0,29.967,0,0,0,71.8,40
2015-10-15 06:30:00,47.2,44.9292283353232,47.2,90,44.4185329664627,5,11,0,0,0,29.97,0,0,0,71.8,40
2015-10-15 06:35:00,47.2,44.3328971831536,47.2,90,44.4185329664627,6,10,337.5,0,0,29.971,0,0,0,71.8,40
2015-10-15 06:40:00,47.3,44.4519901799055,47.3,90,44.5172811964217,6,11,337.5,0,0,29.973,0,0,0,71.6,40
2015-10-15 06:45:00,47.3,45.0466842169482,47.3,90,44.5172811964217,5,10,0,0,0,29.973,0,0,0,71.6,40
2015-10-15 06:50:00,47.3,45.0466842169482,47.3,90,44.5172811964217,5,11,292.5,0,0,29.976,5,0,0,71.4,40
2015-10-15 06:55:00,47.3,45.0466842169482,47.3,90,44.5172811964217,5,8,337.5,0,0,29.976,7,0,0,71.4,40
2015-10-15 07:00:00,47.3,45.0466842169482,47.3,90,44.5172811964217,5,9,315,0,0,29.975,9,0,0,71.4,40
2015-10-15 07:05:00,47.4,44.5710831766574,47.4,90,44.6160291465425,6,11,315,0,0,29.973,10,0,0,71.4,40
2015-10-15 07:10:00,47.4,45.1641400985732,47.4,90,44.6160291465425,5,10,315,0,0,29.974,9,0,0,71.2,40
2015-10-15 07:15:00,47.4,45.1641400985732,47.4,90,44.6160291465425,5,10,337.5,0,0,29.972,10,0,0,71.2,40
2015-10-15 07:20:00,47.4,44.5710831766574,47.4,90,44.6160291465425,6,11,0,0,0,29.974,12,0,0,71.2,41
2015-10-15 07:25:00,47.4,45.8668289544352,47.4,90,44.6160291465425,4,8,0,0,0,29.975,14,0,0,71.1,41
2015-10-15 07:30:00,47.5,45.9823450854007,47.5,90,44.7147768168264,4,8,337.5,0,0,29.976,17,0,0,71.1,41
2015-10-15 07:35:00,47.6,46.0978612163663,47.6,90,44.8135242072745,4,11,292.5,0,0,29.974,19,0,0,71.1,41
2015-10-15 07:40:00,47.6,47.6,47.6,90,44.8135242072745,2,6,292.5,0,0,29.975,17,0,0,71.1,41
2015-10-15 07:45:00,47.7,46.2133773473318,47.7,90,44.912271317888,4,11,315,0,0,29.978,14,0,0,70.9,41
2015-10-15 07:50:00,47.8,45.6339636250733,47.8,90,45.0110181486681,5,10,337.5,0,0,29.98,14,0,0,70.9,41
2015-10-15 07:55:00,47.8,45.0474551636649,47.8,90,45.0110181486681,6,12,337.5,0,0,29.979,17,0,0,70.9,41
2015-10-15 08:00:00,47.9,45.1665481604167,47.9,90,45.1097646996161,6,10,0,0,0,29.984,12,0.001,0,70.7,41
2015-10-15 08:05:00,47.9,45.1665481604167,47.9,90,45.1097646996161,6,9,0,0,0,29.983,12,0,0,70.7,41
2015-10-15 08:10:00,47.9,46.4444096092629,47.9,90,45.1097646996161,4,9,0,0,0,29.987,15,0,0,70.7,41
2015-10-15 08:15:00,47.9,45.7514195066984,47.9,90,45.1097646996161,5,10,337.5,0.00393700787,0,29.987,26,0,0,70.7,42
2015-10-15 08:20:00,47.9,45.7514195066984,47.9,90,45.1097646996161,5,9,315,0,0,29.988,38,0,0,70.7,44
2015-10-15 08:25:00,48,45.8688753883234,48,90,45.208510970733,5,9,0,0,0,29.985,49,0,0,70.7,44
2015-10-15 08:30:00,48.1,45.9863312699484,48.1,90,45.3072569620201,5,9,292.5,0,0,29.988,61,0,0.8,70.7,44
2015-10-15 08:35:00,48.1,45.9863312699484,48.1,90,45.3072569620201,5,9,315,0,0,29.984,67,0,0.8,70.9,45
2015-10-15 08:40:00,48.1,45.4047341539205,48.1,90,45.3072569620201,6,13,337.5,0,0,29.985,75,0,0.8,70.9,45
2015-10-15 08:45:00,48.1,45.4047341539205,48.1,90,45.3072569620201,6,11,337.5,0,0,29.985,65,0,0.8,71.1,45
2015-10-15 08:50:00,48.2,46.1037871515735,48.2,90,45.4060026734786,5,8,292.5,0,0,29.987,39,0,0,71.1,45
2015-10-15 08:55:00,48.2,46.7909580021595,48.2,90,45.4060026734786,4,9,315,0,0,29.987,34,0,0,71.1,45
2015-10-15 09:00:00,48.2,48.2,48.2,90,45.4060026734786,3,7,0,0,0,29.987,39,0.001,0,71.1,45
2015-10-15 09:05:00,48.2,48.2,48.2,90,45.4060026734786,3,8,292.5,0,0,29.989,30,0,0,71.2,45
2015-10-15 09:10:00,48.2,48.2,48.2,94,46.5548882309842,2,7,292.5,0.00393700787,0,29.989,18,0,0,71.2,45
2015-10-15 09:15:00,48.2,48.2,48.2,94,46.5548882309842,3,6,337.5,0,0,29.989,24,0,0,71.2,45
2015-10-15 09:20:00,48.2,46.7909580021595,48.2,94,46.5548882309842,4,8,337.5,0.00393700787,0.02755905509,29.997,30,0,0,71.2,44
2015-10-15 09:25:00,48.2,46.7909580021595,48.2,90,45.4060026734786,4,8,0,0,0.02362204722,29.991,35,0,0,71.2,44
2015-10-15 09:30:00,48.2,48.2,48.2,90,45.4060026734786,3,8,337.5,0,0.01574803148,29.992,40,0,0,71.4,44
2015-10-15 09:35:00,48.2,48.2,48.2,90,45.4060026734786,2,6,337.5,0,0,29.99,83,0,1,71.4,44
2015-10-15 09:40:00,48.3,48.3,48.3,90,45.5047481051096,3,7,337.5,0,0,29.989,79,0,0.9,71.6,44
2015-10-15 09:45:00,48.3,48.3,48.3,90,45.5047481051096,2,6,337.5,0,0,29.989,85,0,1,71.6,44
2015-10-15 09:50:00,48.5,48.5,48.5,91,45.9940026867624,1,5,337.5,0,0,29.989,78,0,1,71.8,43
2015-10-15 09:55:00,48.6,48.6,48.6,91,46.0928778286511,2,4,22.5,0,0,29.99,72,0,0.9,71.8,43
2015-10-15 10:00:00,48.7,47.3685386569873,48.7,91,46.1917527195669,4,8,337.5,0,0,29.991,86,0.001,1,71.9,43
2015-10-15 10:05:00,48.8,48.8,48.8,90,45.9984710658948,2,6,67.5,0,0,29.994,122,0,1.2,71.9,43
2015-10-15 10:10:00,48.9,48.9,48.9,91,46.389501748484,3,7,0,0,0,29.994,148,0,1.4,72.1,43
2015-10-15 10:15:00,49.1,47.8306031808494,49.1,90,46.2947014845127,4,7,0,0,0,29.996,108,0,1.1,72.1,43
2015-10-15 10:20:00,49.2,49.2,49.2,91,46.6861234095874,2,5,22.5,0,0,29.994,70,0,0.9,72.1,43
2015-10-15 10:25:00,49.2,49.2,49.2,91,46.6861234095874,1,4,22.5,0,0,29.994,71,0,1,72.1,43
2015-10-15 10:30:00,49.4,49.4,49.4,91,46.8838699288192,2,6,315,0,0,29.996,83,0,1,72.1,43
2015-10-15 10:35:00,49.5,48.2926677047116,49.5,91,46.9827428119869,4,7,315,0,0,29.995,96,0,1.1,72.3,43
2015-10-15 10:40:00,49.6,49.6,49.6,91,47.0816154441904,2,7,0,0,0,29.996,108,0,1.2,72.3,43
2015-10-15 10:45:00,49.7,49.7,49.7,91,47.1804878254306,1,4,292.5,0,0,29.994,129,0,1.4,72.3,43
2015-10-15 10:50:00,49.9,49.9,49.9,91,47.3782318350249,2,8,0,0,0,29.995,134,0,1.4,72.4,43
2015-10-15 10:55:00,50,50,50,91,47.477103463381,2,7,0,0,0,29.995,134,0,1.3,72.4,43
2015-10-15 11:00:00,50.1,50.1,50.1,91,47.5759748407777,4,10,292.5,0,0,29.994,153,0.002,1.5,72.6,43
2015-10-15 11:05:00,50.2,50.2,50.2,91,47.6748459672159,4,9,292.5,0,0,29.994,166,0,1.6,72.6,43
2015-10-15 11:10:00,50.3,50.3,50.3,90,47.4795979757994,5,10,337.5,0,0,29.994,174,0,1.6,72.8,43
2015-10-15 11:15:00,50.5,50.5,50.5,91,47.971457840789,3,8,45,0,0,29.996,172,0,1.6,72.8,43
2015-10-15 11:20:00,50.6,50.6,50.6,91,48.0703279634028,3,7,22.5,0,0,29.997,178,0,1.6,73,43
2015-10-15 11:25:00,50.8,50.8,50.8,90,47.9732929554462,5,9,0,0,0,29.996,187,0,1.7,73,43
2015-10-15 11:30:00,50.9,50.9,50.9,90,48.0720311119812,4,10,315,0,0,29.993,145,0,1.5,73.1,43
2015-10-15 11:35:00,51,51,51,90,48.170768988721,3,9,0,0,0,29.991,158,0,1.6,73.1,43
2015-10-15 11:40:00,51.2,51.2,51.2,90,48.3682439028192,4,9,0,0,0,29.992,178,0,1.6,73.1,43
2015-10-15 11:45:00,51.3,51.3,51.3,90,48.4669809401801,5,11,0,0,0,29.992,183,0,1.5,73.1,43
2015-10-15 11:50:00,51.3,51.3,51.3,89,48.1686480501454,6,12,337.5,0,0,29.993,195,0,1.7,73.1,43
2015-10-15 11:55:00,51.4,51.4,51.4,90,48.5657176977504,4,11,22.5,0,0,29.994,252,0,1.8,73.3,43
2015-10-15 12:00:00,51.5,51.5,51.5,89,48.3658561381636,6,10,315,0,0,29.992,234,0.004,1.7,73.3,43
2015-10-15 12:05:00,51.6,51.6,51.6,89,48.4644597189178,5,11,0,0,0,29.993,243,0,1.8,73.5,43
2015-10-15 12:10:00,51.8,51.8,51.8,89,48.6616659539241,5,11,337.5,0,0,29.993,243,0,1.7,73.5,43
2015-10-15 12:15:00,51.9,51.9,51.9,88,48.4581686571665,5,12,337.5,0,0,29.991,223,0,1.8,73.5,43
2015-10-15 12:20:00,52.2,52.2,52.2,87,48.4480317712611,6,10,292.5,0,0,29.993,314,0,2.1,73.5,43
2015-10-15 12:25:00,52.7,52.7,52.7,86,48.6303587977331,4,8,315,0,0,29.991,284,0,2.1,73.5,43
2015-10-15 12:30:00,53.3,53.3,53.3,84,48.5895767225016,5,11,0,0,0,29.992,316,0,2.2,73.6,42
2015-10-15 12:35:00,53.6,53.6,53.6,83,48.562961011683,6,11,0,0,0,29.992,280,0,1.6,73.6,42
2015-10-15 12:40:00,53.6,53.6,53.6,83,48.562961011683,6,10,315,0,0,29.991,189,0,1.4,73.6,42
2015-10-15 12:45:00,53.5,53.5,53.5,82,48.1415640487001,5,12,0,0,0,29.992,170,0,1.5,73.6,42
2015-10-15 12:50:00,53.4,53.4,53.4,82,48.043934489,5,12,0,0,0,29.992,181,0,1.6,73.6,42
2015-10-15 12:55:00,53.4,53.4,53.4,82,48.043934489,6,10,337.5,0,0,29.993,194,0,1.6,73.6,42
2015-10-15 13:00:00,53.3,53.3,53.3,82,47.9463044111412,6,10,337.5,0,0,29.994,205,0.005,1.7,73.8,42
2015-10-15 13:05:00,53.3,53.3,53.3,82,47.9463044111412,6,9,337.5,0,0,29.989,222,0,1.8,73.8,42
2015-10-15 13:10:00,53.3,53.3,53.3,82,47.9463044111412,5,11,315,0,0,29.987,248,0,1.8,73.8,42
2015-10-15 13:15:00,53.5,53.5,53.5,82,48.1415640487001,5,10,337.5,0,0,29.987,273,0,1.8,73.8,42
2015-10-15 13:20:00,53.7,53.7,53.7,82,48.3368216136404,6,11,337.5,0,0,29.988,229,0,1.7,74,42
2015-10-15 13:25:00,53.9,53.9,53.9,82,48.5320771059952,4,9,22.5,0,0,29.987,254,0,1.7,74,42
2015-10-15 13:30:00,54.1,54.1,54.1,80,48.0677885634319,7,12,0,0,0,29.988,249,0,1.8,74,42
2015-10-15 13:35:00,54.4,54.4,54.4,79,48.0241265408216,6,12,315,0,0,29.986,304,0,1.8,74,42
2015-10-15 13:40:00,54.6,54.6,54.6,79,48.2185012513168,3,7,337.5,0,0,29.983,212,0,1.6,74.2,43
2015-10-15 13:45:00,54.6,54.6,54.6,79,48.2185012513168,6,13,337.5,0,0,29.986,179,0,1.5,74.2,42
2015-10-15 13:50:00,54.5,54.5,54.5,79,48.121314201717,7,13,337.5,0,0,29.985,152,0,1.5,74.2,42
2015-10-15 13:55:00,54.3,54.3,54.3,79,47.9269382686246,6,10,0,0,0,29.985,250,0,1.7,74.2,42
2015-10-15 14:00:00,54.2,54.2,54.2,80,48.1651250246039,7,12,337.5,0,0,29.984,390,0.006,1.9,74,42
2015-10-15 14:05:00,54.4,54.4,54.4,80,48.3597962069383,7,13,0,0,0,29.982,238,0,1.6,74.2,42
2015-10-15 14:10:00,54,54,54,80,47.9704515222498,9,15,337.5,0,0,29.983,275,0,1.7,74.2,42
2015-10-15 14:15:00,54.1,54.1,54.1,80,48.0677885634319,8,11,337.5,0,0,29.984,365,0,1.6,74.2,42
2015-10-15 14:20:00,54.1,54.1,54.1,80,48.0677885634319,7,12,315,0,0,29.985,160,0,1.1,74.2,42
2015-10-15 14:25:00,54,54,54,80,47.9704515222498,5,12,315,0,0,29.985,84,0,0.9,74.2,42
2015-10-15 14:30:00,53.8,53.8,53.8,80,47.7757756998343,6,14,337.5,0,0,29.984,52,0,0.4,74.2,42
2015-10-15 14:35:00,53.6,53.6,53.6,80,47.5810975573161,6,12,337.5,0,0,29.983,45,0,0,74.2,42
2015-10-15 14:40:00,53.4,53.4,53.4,80,47.3864170946537,5,11,45,0,0,29.985,37,0,0,74,42
2015-10-15 14:45:00,53.3,53.3,53.3,80,47.2890759932554,7,16,292.5,0,0,29.984,27,0,0,74,42
2015-10-15 14:50:00,53,53,53,80,46.9970492087303,8,14,337.5,0,0,29.984,26,0,0,73.8,42
2015-10-15 14:55:00,52.8,52.8,52.8,81,47.1320354039811,6,12,337.5,0,0,29.984,26,0,0,73.8,43
2015-10-15 15:00:00,52.6,52.6,52.6,81,46.937055625109,6,15,337.5,0,0,29.984,26,0.003,0,73.8,43
2015-10-15 15:05:00,52.5,52.5,52.5,81,46.8395649121477,5,14,337.5,0,0,29.984,27,0,0,73.8,43
2015-10-15 15:10:00,52.4,52.4,52.4,82,47.0676103925864,6,12,337.5,0,0,29.985,29,0,0,73.6,42
2015-10-15 15:15:00,52.3,52.3,52.3,82,46.9699751329129,6,12,0,0,0,29.988,30,0,0,73.6,42
2015-10-15 15:20:00,52.2,52.2,52.2,82,46.8723393550354,5,12,22.5,0,0,29.984,31,0,0,73.5,42
2015-10-15 15:25:00,52,52,52,82,46.6770662446512,5,12,0,0,0,29.983,32,0,0,73.5,43
2015-10-15 15:30:00,51.9,51.9,51.9,83,46.900780397611,5,11,0,0,0,29.983,32,0,0,73.5,43
2015-10-15 15:35:00,51.9,51.9,51.9,83,46.900780397611,5,10,315,0,0,29.984,32,0,0,73.5,43
2015-10-15 15:40:00,51.9,51.9,51.9,83,46.900780397611,5,10,0,0,0,29.983,32,0,0,73.5,43
2015-10-15 15:45:00,51.9,51.9,51.9,83,46.900780397611,4,9,22.5,0,0,29.983,32,0,0,73.3,43
2015-10-15 15:50:00,51.8,51.8,51.8,83,46.8030006788876,4,9,315,0,0,29.983,32,0,0,73.3,43
2015-10-15 15:55:00,51.8,51.8,51.8,83,46.8030006788876,5,9,315,0,0,29.983,30,0,0,73.3,43
2015-10-15 16:00:00,51.7,51.7,51.7,83,46.7052204725318,6,12,292.5,0,0,29.983,41,0.001,0,73.3,43
2015-10-15 16:05:00,51.7,51.7,51.7,83,46.7052204725318,5,9,337.5,0,0,29.982,51,0,0,73.3,43
2015-10-15 16:10:00,51.7,51.7,51.7,83,46.7052204725318,6,12,292.5,0,0,29.982,39,0,0,73.3,43
2015-10-15 16:15:00,51.7,51.7,51.7,83,46.7052204725318,6,11,315,0,0,29.981,21,0,0,73.1,43
2015-10-15 16:20:00,51.7,51.7,51.7,83,46.7052204725318,5,10,0,0,0,29.982,12,0,0,73.1,43
2015-10-15 16:25:00,51.8,51.8,51.8,83,46.8030006788876,5,10,337.5,0,0,29.985,7,0,0,73.1,43
2015-10-15 16:30:00,51.7,51.7,51.7,83,46.7052204725318,6,13,0,0,0,29.987,5,0,0,73.1,43
2015-10-15 16:35:00,51.7,51.7,51.7,83,46.7052204725318,6,12,0,0,0,29.989,5,0,0,73,43
2015-10-15 16:40:00,51.7,51.7,51.7,83,46.7052204725318,5,11,315,0,0,29.99,3,0,0,73,43
2015-10-15 16:45:00,51.7,51.7,51.7,83,46.7052204725318,5,9,315,0,0,29.99,0,0,0,72.8,43
2015-10-15 16:50:00,51.7,51.7,51.7,83,46.7052204725318,6,10,337.5,0,0,29.99,0,0,0,72.6,43
2015-10-15 16:55:00,51.6,51.6,51.6,83,46.6074397785399,5,11,0,0,0,29.991,0,0,0,72.6,42
2015-10-15 17:00:00,51.5,51.5,51.5,82,46.1888743998296,5,10,315,0,0,29.99,0,0.001,0,72.4,42
2015-10-15 17:05:00,51.5,51.5,51.5,82,46.1888743998296,5,12,337.5,0,0,29.993,0,0,0,72.4,42
2015-10-15 17:10:00,51.4,51.4,51.4,82,46.0912344761703,4,12,337.5,0,0,30,0,0,0,72.3,42
2015-10-15 17:15:00,51.4,51.4,51.4,82,46.0912344761703,5,10,337.5,0,0,29.999,0,0,0,72.3,42
2015-10-15 17:20:00,51.4,51.4,51.4,82,46.0912344761703,4,10,292.5,0,0,29.997,0,0,0,72.3,43
2015-10-15 17:25:00,51.4,51.4,51.4,82,46.0912344761703,6,15,337.5,0,0,29.997,0,0,0,72.1,43
2015-10-15 17:30:00,51.4,51.4,51.4,82,46.0912344761703,7,14,0,0,0,29.996,0,0,0,72.1,43
2015-10-15 17:35:00,51.3,51.3,51.3,82,45.9935940342697,7,16,292.5,0,0,29.997,0,0,0,72.1,43
2015-10-15 17:40:00,51.2,51.2,51.2,83,46.2163121261387,7,14,315,0,0,30,0,0,0,72.1,43
2015-10-15 17:45:00,51.2,51.2,51.2,83,46.2163121261387,6,13,337.5,0,0,29.999,0,0,0,72.1,43
2015-10-15 17:50:00,51.1,51.1,51.1,83,46.1185289939118,7,14,315,0,0,30,0,0,0,72.1,43
2015-10-15 17:55:00,51.1,51.1,51.1,83,46.1185289939118,6,11,315,0,0,29.999,0,0,0,72.1,43
2015-10-15 18:00:00,51,51,51,83,46.0207453740269,5,12,0,0,0,30.001,0,0.001,0,72.1,43
2015-10-15 18:05:00,50.9,50.9,50.9,83,45.9229612664804,6,12,337.5,0,0,30.002,0,0,0,72.1,43
2015-10-15 18:10:00,50.9,50.9,50.9,83,45.9229612664804,6,11,292.5,0,0,30.004,0,0,0,72.1,43
2015-10-15 18:15:00,50.8,50.8,50.8,84,46.141594795388,6,13,337.5,0,0,30.004,0,0,0,72.1,43
2015-10-15 18:20:00,50.8,50.8,50.8,84,46.141594795388,6,11,0,0,0,30.002,0,0,0,72.1,43
2015-10-15 18:25:00,50.8,50.8,50.8,84,46.141594795388,5,11,0,0,0,30.007,0,0,0,72.1,43
2015-10-15 18:30:00,50.7,50.7,50.7,84,46.0436695736615,7,10,0,0,0,30.004,0,0,0,72.1,43
2015-10-15 18:35:00,50.7,50.7,50.7,84,46.0436695736615,5,13,337.5,0,0,30.005,0,0,0,72.1,43
2015-10-15 18:40:00,50.7,50.7,50.7,85,46.3566498959903,7,14,0,0,0,30.004,0,0,0,72.1,43
2015-10-15 18:45:00,50.6,50.6,50.6,85,46.2585854705918,6,12,22.5,0,0,30.005,0,0,0,72.1,43
2015-10-15 18:50:00,50.6,50.6,50.6,85,46.2585854705918,7,12,0,0,0,30.008,0,0,0,72.1,43
2015-10-15 18:55:00,50.6,50.6,50.6,85,46.2585854705918,6,11,315,0,0,30.012,0,0,0,72.1,43
2015-10-15 19:00:00,50.5,50.5,50.5,85,46.1605206180157,7,11,0,0,0,30.012,0,0.001,0,72.1,43
2015-10-15 19:05:00,50.5,50.5,50.5,85,46.1605206180157,6,12,337.5,0,0,30.012,0,0,0,72.1,42
2015-10-15 19:10:00,50.4,50.4,50.4,85,46.0624553382591,8,14,337.5,0,0,30.013,0,0,0,72.1,42
2015-10-15 19:15:00,50.3,50.3,50.3,85,45.9643896313191,6,12,0,0,0,30.013,0,0,0,72.1,42
2015-10-15 19:20:00,50.3,50.3,50.3,85,45.9643896313191,8,12,0,0,0,30.016,0,0,0,72.1,42
2015-10-15 19:25:00,50.3,50.3,50.3,86,46.2735957035479,5,10,0,0,0,30.016,0,0,0,72.3,42
2015-10-15 19:30:00,50.2,50.2,50.2,86,46.1753922755763,5,11,0,0,0,30.016,0,0,0,72.3,42
2015-10-15 19:35:00,50.2,50.2,50.2,86,46.1753922755763,6,15,315,0,0,30.017,0,0,0,72.3,42
2015-10-15 19:40:00,50.2,50.2,50.2,86,46.1753922755763,6,10,315,0,0,30.017,0,0,0,72.3,42
2015-10-15 19:45:00,50.2,50.2,50.2,86,46.1753922755763,5,11,315,0,0,30.019,0,0,0,72.3,42
2015-10-15 19:50:00,50.1,50.1,50.1,86,46.0771884503267,4,12,22.5,0,0,30.019,0,0,0,72.3,42
2015-10-15 19:55:00,50.1,50.1,50.1,86,46.0771884503267,5,11,315,0,0,30.022,0,0,0,72.3,42
2015-10-15 20:00:00,50.1,50.1,50.1,86,46.0771884503267,3,8,315,0,0,30.022,0,0.001,0,72.3,42
2015-10-15 20:05:00,50,50,50,86,45.9789842277967,5,10,315,0,0,30.023,0,0,0,72.3,42
2015-10-15 20:10:00,50,50,50,86,45.9789842277967,3,8,337.5,0,0,30.023,0,0,0,72.3,42
2015-10-15 20:15:00,50,50,50,86,45.9789842277967,5,9,337.5,0,0,30.023,0,0,0,72.3,42
2015-10-15 20:20:00,49.9,48.7547322285738,49.9,86,45.8807796079839,4,9,315,0,0,30.024,0,0,0,72.3,42
2015-10-15 20:25:00,49.9,48.7547322285738,49.9,86,45.8807796079839,4,10,292.5,0,0,30.023,0,0,0,72.3,42
2015-10-15 20:30:00,49.9,48.1005371391989,49.9,86,45.8807796079839,5,10,0,0,0,30.024,0,0,0,72.3,42
2015-10-15 20:35:00,49.9,48.7547322285738,49.9,86,45.8807796079839,4,8,315,0,0,30.023,0,0,0,72.3,42
2015-10-15 20:40:00,49.9,48.1005371391989,49.9,87,46.1862927883344,5,11,315,0,0,30.023,0,0,0,72.3,42
2015-10-15 20:45:00,49.8,47.9830812575739,49.8,87,46.0879518998655,5,9,315,0,0,30.023,0,0,0,72.3,42
2015-10-15 20:50:00,49.8,47.9830812575739,49.8,87,46.0879518998655,5,9,0,0,0,30.025,0,0,0,72.3,42